Location: Newark
(25.4800°N, 85.7200°E)
Time: 18:22:50
(UTC+00:00)

Vanguard 1 Rocket - Pass Details

Date: 22 August 2019
Orbit: 652 x 4225 km, 34.3° (Epoch: 15 September)

Event Time Altitude Azimuth Distance (km) Brightness Sun altitude
Rises 05:33:58 0° 268° (W) 5,841 11.4 72.6°
Reaches altitude 10° 05:39:11 10° 252° (WSW) 5,431 11.4 73.3°
Maximum altitude 05:49:45 19° 214° (SSW) 5,664 11.8 74.6°
Drops below altitude 10° 06:03:47 10° 177° (S) 7,228 12.3 75.8°
Sets 06:13:13 0° 162° (SSE) 8,456 12.5 76.3°
